203P/Korlevic (2000)

Japanese version
Home page
Updated on November 29, 2009

---------------------------------------------------------------------

* Profile

Designation 203P/1999 WJ7
Discovery Date November 28, 1999
Magnitude 17.9 mag
Discoverer Korado Korlevic (Visnjan)

* Orbital Elements

Epoch 2000 Feb. 26.0 TT = JDT 2451600.5
T 2000 Feb. 15.80254 TT                                 MPC
q   3.1673328            (2000.0)            P               Q
n   0.09880942     Peri.  154.53149     +0.08549632     -0.99514889
a   4.6337984      Node   290.53264     +0.90500234     +0.09799874
e   0.3164716      Incl.    2.97929     +0.41672669     -0.00865680
P   9.97

* Finding Charts

* Magnitudes Graph

        m1 = 6.0 + 5 log d + 16.0 log r(t - 300)

---------------------------------------------------------------------

The orbital elements are published on M.P.E.C. 2008-R53.
The charts are made with StellaNavigator Ver.2.0 for Windows (AstroArts / ASCII).
The magnitudes graphs are made with Comet for Windows.

---------------------------------------------------------------------

Copyright(C) Seiichi Yoshida (comet@aerith.net). All rights reserved.